Regional Weather Roundup
Issued by NWS

Home | Current Version | Previous Version | Text Only | Print | Product List | Glossary Off
Versions: 1 2 3 4 5 6 7 8 9 10 11 12 13 14 15 16 17 18 19 20 21 22 23 24 25 26 27 28 29 30 31 32 33 34 35 36 37 38 39 40 41 42 43 44 45 46 47 48 49 50

000
ASUS45 KSLC 250310
RWRUT

UTAH REGIONAL WEATHER ROUNDUP
NATIONAL WEATHER SERVICE SALT LAKE CITY UT
900 PM MDT SUN MAY 24 2015

UTZ001>011-023>025-250400-

NORTHERN UTAH

CITY           SKY/WX    TMP DP  RH WIND       PRES   REMARKS
BRIGHAM CITY   PTCLDY    57  46  65 CALM      29.91R
HILL AFB       LGT RAIN  53  49  85 N5        29.93R
LOGAN          MOCLDY    57  45  64 CALM      29.89R
OGDEN          LGT RAIN  54  49  83 E10       29.91R
PROVO AIRPORT  PTCLDY    55  45  67 CALM      29.91S
SALT LAKE CITY MOCLDY    62  42  47 NW9       29.89R
VERNAL         LGT RAIN  50  44  80 SW6       29.93R
WENDOVER       PTCLDY    61  45  55 W6        29.92R
HEBER CITY     MOCLDY    52  41  66 SE3       29.94R
WEST JORDAN    PTCLDY    55  45  67 N7        29.91R

$$

UTZ012>022-026-027-250400-

SOUTHERN/CENTRAL UTAH

CITY           SKY/WX    TMP DP  RH WIND       PRES   REMARKS
BLANDING       PTCLDY    52  44  73 E3        30.00S
BRYCE CANYON   MOCLDY    46  38  73 NW9       30.03R
CEDAR CITY     MOCLDY    53  45  74 CALM      29.96S
DELTA          PTCLDY    58  42  54 NW6       29.92S
HANKSVILLE     CLOUDY    64  37  36 NW16G25   29.86R
MILFORD        CLOUDY    55  49  80 SW6       29.94R
MOAB/CYNLANDS  MOCLDY    60  40  47 E21       29.82R
PRICE          PTCLDY    57  35  43 NW9       29.91R
ST GEORGE      MOCLDY    66  46  48 W5        29.90S
KANAB          MOCLDY    55  46  71 SW6       29.98S

$$

REGIONAL REPORTS     COLORADO/ARIZONA

CITY           SKY/WX    TMP DP  RH WIND       PRES   REMARKS
CRAIG, CO      CLOUDY    45  39  79 SW5       29.96R
GRAND JUNCTION LGT RAIN  52  47  83 S5        29.90S
RIFLE          LGT RAIN  46  43  89 CALM      29.96S
MONTROSE       CLOUDY    50  43  77 SW7       29.95R
CORTEZ         MOCLDY    53  41  63 CALM      29.94S
PAGE, AZ       MOCLDY    63  49  60 N5        29.89R
GRAND CANYON   MOCLDY    47  46  97 CALM      30.03S
KINGMAN        MOCLDY    70  36  28 SW8       29.90R
FLAGSTAFF      MOCLDY    46  43  89 SW6       30.06R

$$

REGIONAL REPORTS    NEVADA/IDAHO/WYOMING

CITY           SKY/WX    TMP DP  RH WIND       PRES   REMARKS
LAS VEGAS, NV  MOCLDY    80  42  25 S12       29.76R
ELY            MOCLDY    49  42  77 N12       30.01S
ELKO           CLOUDY    51  46  83 NW6       29.96F
POCATELLO, ID  PTCLDY    56  48  74 SW7       29.91R
BURLEY         CLOUDY    53  49  86 SW7       29.90S
EVANSTON, WY   CLOUDY    44  40  85 SW13      29.96S
ROCK SPRINGS   LGT RAIN  44  39  82 NE7       29.97R
KEMMERER       CLOUDY    41  41 100 S5        29.98R

$$



USA.gov is the U.S. government's official web portal to all federal, state and local government web resources and services.